Regional Weather Roundup
Issued by NWS

Home | Current Version | Previous Version | Graphics & Text | Print | Product List | Glossary On
Versions: 1 2 3 4 5 6 7 8 9 10 11 12 13 14 15 16 17 18 19 20 21 22 23 24 25 26 27 28 29 30 31 32 33 34 35 36 37 38 39 40 41 42 43 44 45 46 47 48 49 50
000
ASUS43 KLOT 242003
RWRIL

ILLINOIS REGIONAL WEATHER ROUNDUP
NATIONAL WEATHER SERVICE CHICAGO/ROMEOVILLE IL
200 PM CST FRI NOV 24 2017

NOTE: "FAIR" INDICATES FEW OR NO CLOUDS BELOW 12,000 FEET WITH NO
SIGNIFICANT WEATHER AND/OR OBSTRUCTIONS TO VISIBILITY.

* THESE STATIONS ARE NOT UNDER NWS QUALITY CONTROL. THEY ALSO MAY NOT
  REPORT WEATHER SUCH AS PRECIPITATION OR FOG.

ILZ001-002-007-009-015-016-024-242100-
NORTHWEST ILLINOIS

CITY           SKY/WX    TMP DP  RH WIND       PRES   REMARKS
MOLINE         SUNNY     71  38  29 SW21G33   29.41F
STERLING*      MOSUNNY   66  40  38 MISG        N/A
SAVANNA*       SUNNY     68  39  34 S14       29.41F
$$

ILZ003-004-008-010-011-017-018-242100-
NORTH CENTRAL ILLINOIS

CITY           SKY/WX    TMP DP  RH WIND       PRES   REMARKS
ROCKFORD       SUNNY     65  38  36 S22G28    29.45F
FREEPORT*      SUNNY     65  39  38 S26G33    29.42F
ROCHELLE*      SUNNY     62  40  45 S26G33    29.46F
DE KALB*       SUNNY     62  40  45 S24G36    29.48F
PERU*          SUNNY     63  38  40 S21G26    29.50F
$$

ILZ005-006-012>014-019>023-242100-
NORTHEAST ILLINOIS

CITY           SKY/WX    TMP DP  RH WIND       PRES   REMARKS
CHICAGO-OHARE  MOSUNNY   62  38  40 S23G31    29.49F
CHICAGO-MIDWAY NOT AVBL
AURORA         SUNNY     63  40  42 S18G31    29.50F
LANSING*       SUNNY     59  42  52 S23G30    29.57F
JOLIET*        SUNNY     63  40  42 S18G25    29.53F
WAUKEGAN       SUNNY     62  39  42 S23G31    29.45F
DUPAGE AIRPORT SUNNY     61  40  45 S20G35    29.49F
KANKAKEE*      SUNNY     59  38  46 S21G30    29.59F
WHEELING       SUNNY     64  39  39 S24       29.50F
MORRIS*        SUNNY     63  39  42 S23G29    29.52F
ROMEOVILLE*    SUNNY     61  40  45 S18G30    29.53F
NORTHERLY ISL    N/A     59  35  40 S20         N/A
$$

LMZ740>746-242100-
SOUTHERN LAKE MICHIGAN

STATION/POSITION SKY/WX   TEMP    WIND        PRES    VSBY  WAVE
                          AIR SEA DIR/SP/G                  HT/PER
                          (F)     (DEG/KT/KT) (MB)    (MI)  (FT/S)
SOUTHERN BUOY              48 47  190/ 23/ 29 1000.1          6/ 6
HARRISON CRIB              58     200/ 28/ 31   N/A
BURNHAM HARBOR             60     190/ 13/ 24   N/A
CALUMET HARBOR             58     170/ 18/ 23 1000.1F
BURNS HARBOR               58     180/ 22/ 28 1002.0F
MICHIGAN CITY              56     170/ 17/ 22   N/A
$$

ILZ025>027-034>036-040-047-049-050-058-095>099-242100-
WEST-CENTRAL ILLINOIS

CITY           SKY/WX    TMP DP  RH WIND       PRES   REMARKS
QUINCY         SUNNY     71  37  28 S23G32    29.53F
GALESBURG*     SUNNY     70  40  33 S25G35    29.48F
MACOMB*        SUNNY     71  37  29 SW24G36   29.52F
JACKSONVILLE*  SUNNY     68  37  31 S22G29    29.57F
PITTSFIELD*    SUNNY     72  38  29 S21G28    29.57F
$$

ILZ028>032-037-038-041>044-048-051>054-059>061-242100-
CENTRAL ILLINOIS

CITY           SKY/WX    TMP DP  RH WIND       PRES   REMARKS
PONTIAC        SUNNY     64  39  39 S24G36    29.56F
BLOOMINGTON    SUNNY     62  40  44 S24G33    29.58F
DECATUR        SUNNY     63  37  38 S20       29.63F
PEORIA         SUNNY     67  39  35 S23G30    29.52F
LACON*         SUNNY     65  38  37 S17G26    29.49F
LINCOLN*       SUNNY     64  41  43 S14G24    29.59F
SPRINGFIELD    SUNNY     67  39  35 S21G29    29.60F
TAYLORVILLE    SUNNY     62  40  44 S17G25    29.64F
$$

ILZ033-039-045-046-055>057-062-063-242100-
EAST-CENTRAL ILLINOIS

CITY           SKY/WX    TMP DP  RH WIND       PRES   REMARKS
CHAMPAIGN      SUNNY     60  38  43 S24       29.65F
DANVILLE*      SUNNY     56  37  47 S22G28    29.65F
RANTOUL*       SUNNY     60  42  50 S20       29.64F
MATTOON        SUNNY     57  36  45 S18G28    29.68F
PARIS*         SUNNY     57  39  50 S17       29.72F
$$

ILZ079-100>102-242100-
SOUTHWEST ILLINOIS

CITY           SKY/WX    TMP DP  RH WIND       PRES   REMARKS
ALTON          SUNNY     68  43  40 S12G21    29.66F
BELLEVILLE     SUNNY     69  37  31 S18       29.66F
CAHOKIA*       SUNNY     72  37  28 S12G23    29.66F
SPARTA*        SUNNY     63  36  36 S15G23    29.73F
$$

ILZ064>066-069>071-074>076-080>082-084>086-088>090-092>094-242100-
SOUTH-CENTRAL ILLINOIS

CITY           SKY/WX    TMP DP  RH WIND       PRES   REMARKS
CARBONDALE     SUNNY     62  34  35 S14       29.77F
CAIRO*         SUNNY     61  35  37 S14G23    29.84F
EFFINGHAM*     SUNNY     61  37  40 SE12G18   29.73F
MARION         MOSUNNY   63  34  34 S16G23    29.80F
MT. VERNON     SUNNY     63  36  36 S21       29.75F
CENTRALIA*     SUNNY     64  38  38 S17G23    29.72F
SALEM*         SUNNY     65  35  32 S16G24    29.72F
METROPOLIS*    SUNNY     63  33  33 S12       29.84F
$$

ILZ067-068-072-073-078-083-087-091-242100-
SOUTHEAST ILLINOIS

CITY           SKY/WX    TMP DP  RH WIND       PRES   REMARKS
LAWRENCEVILLE  SUNNY     59  35  40 S17       29.79F
FLORA*         SUNNY     63  36  37 S18       29.75F
FAIRFIELD*     SUNNY     61  36  39 S5        29.76F
HARRISBURG*    SUNNY     62  35  36 SW14G21   29.81F
ROBINSON*      SUNNY     56  35  43 S15       29.77F
CARMI*         MOSUNNY   63  36  36 S15       29.79F
$$

ABBREVIATIONS USED IN REMARKS
   TC - TEMPERATURE IN CELSIUS
  WCI - WIND CHILL INDEX
   HX - HEAT INDEX
  VSB - VISIBILITY
$$




USA.gov is the U.S. government's official web portal to all federal, state and local government web resources and services.